Weather in Klesiv

Ukraine / Rovno District     51˚18′57″N   26˚53′41″E
temp.,
°C
wind,
m/s
gust,
m/s
humid.,
%
clouds,
%
prec.,
mm/h
press.,
hPa
HPBL,
m
2 december, wed
wed223:00−3˚ene24830 0.0 1030148
02:00−3˚ne258510 0.0 1030196
05:00−3˚ne259476 0.1 1029258
08:00−2˚ene249382 0.3 1029273
11:00−1˚ene248482 0.0 1028382
14:00−1˚e238585 0.1 1026389
17:00−1˚ese249086 0.1 1026304
20:00−1˚se358393 0.1 1025502
3 december, thu
thu323:00−1˚sse3680100 0.0 1025658
02:00sse3675100 0.1 1024621
05:00se3777100 0.0 1023380
08:00−2˚se389277 0.0 1024289
11:00+1˚se510802 0.0 1023580
14:00+2˚sse598144 0.0 1022769
17:00+1˚se41083100 0.0 1021793
20:00+2˚se51185100 0.0 1021872
4 december, fri
fri423:00+2˚se51283100 0.0 1020829
02:00+2˚se51389100 0.0 1018595
05:00+3˚se61290100 0.0 1017764
08:00+3˚se6138899 0.0 1017752
11:00+4˚sse7158291 0.0 1017909
14:00+6˚se7158495 0.0 10161077
17:00+6˚se71483100 0.0 1016945
20:00+5˚se71676100 0.0 1017840
5 december, sat
sat523:00+5˚se71578100 0.0 1017725
02:00+4˚se71383100 0.0 1017667
05:00+5˚se71386100 0.0 1017660
08:00+6˚se61385100 0.0 1018693
11:00+7˚se61384100 0.0 1019729
14:00+7˚se61382100 0.0 1019724
17:00+7˚se61382100 0.0 1019661
20:00+6˚se6138397 0.0 1020899
6 december, sun
sun623:00+6˚se61183100 0.0 1021892
02:00+5˚se61282100 0.0 1021762
05:00+4˚se6128399 0.0 1021722
08:00+3˚se71382100 0.0 1021714
11:00+3˚se71480100 0.0 1021699
14:00+4˚se71575100 0.0 1021700
17:00+3˚se7167478 0.0 1020696
20:00+1˚se7167739 0.0 1021731